[[{"header":{"parameterUnit":"m.s-1","parameterCategory":1,"la1":30.2991,"la2":30.254,"lo1":-89.0895,"lo2":-89.0444,"dy":0.0017,"dx":0.0017,"nx":28,"ny":28,"refTime":"2025-08-16T03:00:00:Z","depth":0,"parameterNumber":2,"parameterNumberName":"U-component_of_WINDS"},"data":[0,0,0,0,0,0,0,0,0,0,0,0,0,0,0,0,0,0,0,0,0,0,0,0,0,0,0,0,0,0,0,0,0,0,0,0,0,0,0,0,0,0,0,0,0,0,0,0,0,0,0,0,0,0,0,0,0,0,-0.402,-0.4019,0,-0.3989,-0.3988,-0.3988,-0.3986,-0.3987,-0.3987,-0.3987,-0.3954,-0.3953,-0.3951,0,0,0,0,0,0,0,0,0,0,0,0,0,-0.4076,-0.4075,-0.402,-0.4019,-0.4019,-0.3989,-0.3988,-0.3988,-0.3986,-0.3987,-0.3987,-0.3988,-0.3954,-0.3953,-0.3951,0,0,0,0,0,0,0,0,0,0,0,0,0,-0.4049,-0.4075,-0.402,-0.4015,-0.4014,-0.3989,-0.3988,-0.3988,-0.3986,-0.3987,-0.3987,-0.3988,-0.3955,-0.3953,-0.3951,-0.3928,0,0,-0.3945,-0.3944,0,0,0,0,0,0,0,0,-0.405,-0.4047,-0.4016,-0.4015,-0.4014,-0.3992,-0.3996,-0.3968,-0.3986,-0.3997,-0.3987,-0.3988,-0.3966,-0.3963,-0.3956,-0.3927,-0.3925,-0.3945,-0.3944,-0.3943,-0.3943,0,0,0,0,0,0,0,-0.4052,-0.4048,-0.4007,-0.4015,-0.4014,-0.4013,-0.401,-0.399,-0.3978,-0.3996,-0.3996,-0.3992,-0.3965,-0.3958,-0.3955,-0.3925,-0.3945,-0.3944,-0.3942,-0.3942,-0.3875,-0.3875,0,0,0,0,0,0,-0.4056,-0.405,-0.4008,-0.4006,-0.4034,-0.4012,-0.4008,-0.3998,-0.3979,-0.3976,-0.3992,-0.3992,-0.3961,-0.3957,-0.3954,-0.3926,-0.3943,-0.3941,-0.394,-0.3876,-0.3875,-0.3874,0,0,0,0,0,0,-0.4057,-0.4052,-0.401,-0.4028,-0.4023,-0.401,-0.3999,-0.3997,-0.399,-0.3976,-0.3973,-0.3986,-0.3961,-0.3957,-0.3935,-0.3925,-0.3941,-0.3939,-0.3877,-0.3876,-0.3875,-0.387,0,0,0,0,0,0,-0.4058,-0.4052,-0.4044,-0.4028,-0.4022,-0.3991,-0.3999,-0.3996,-0.3987,-0.3987,-0.397,-0.3967,-0.3961,-0.3938,-0.3933,-0.3923,-0.3937,-0.3877,-0.3876,-0.3875,-0.3871,-0.3869,-0.3868,0,0,0,0,0,-0.406,-0.4044,-0.4044,-0.4039,-0.4011,-0.3991,-0.3987,-0.3981,-0.3986,-0.3977,-0.3968,-0.3968,-0.3927,-0.3935,-0.393,-0.3919,-0.3878,-0.3877,-0.3875,-0.3872,-0.387,-0.3868,0,0,0,0,0,0,-0.4058,-0.4042,-0.4041,-0.4019,-0.4006,-0.3991,-0.398,-0.3979,-0.3964,-0.3965,-0.3957,-0.3953,-0.3931,-0.3923,-0.3933,-0.3896,-0.3903,-0.39,-0.3903,-0.39,-0.3898,-0.3901,-0.3936,0,0,0,0,0,-0.4056,-0.4041,-0.4027,-0.4008,-0.4002,-0.3992,-0.3983,-0.3979,-0.3966,-0.396,-0.3949,-0.3936,-0.392,-0.3909,-0.3894,-0.387,-0.3866,-0.386,-0.3858,-0.3857,-0.3855,-0.3841,-0.3838,-0.387,-0.387,-0.387,0,0,-0.4049,-0.4038,-0.4029,-0.4008,-0.3998,-0.3982,-0.3988,-0.3971,-0.396,-0.3958,-0.3937,-0.3928,-0.3912,-0.3889,-0.3879,-0.3882,-0.3845,-0.3855,-0.3854,-0.3852,-0.3839,-0.3836,-0.3834,-0.3869,-0.3869,-0.3869,0,0,-0.403,-0.402,-0.4004,-0.3994,-0.3978,-0.3972,-0.3968,-0.3952,-0.3947,-0.3925,-0.3924,-0.3909,-0.3882,-0.3871,-0.3862,-0.3838,-0.3837,-0.3833,-0.3824,-0.3811,-0.3808,-0.3806,-0.3797,-0.3795,-0.3831,-0.3831,-0.3831,0,-0.4024,-0.4001,-0.3995,-0.3979,-0.3969,-0.3967,-0.3951,-0.3941,-0.3921,-0.3914,-0.3918,-0.3884,-0.3873,-0.3847,-0.3842,-0.3834,-0.3829,-0.3835,-0.3809,-0.3807,-0.3805,-0.3796,-0.3793,-0.3831,-0.3831,-0.3831,-0.3831,0,-0.3994,-0.3979,-0.3967,-0.3949,-0.3938,-0.3921,-0.3913,-0.3902,-0.3899,-0.3892,-0.387,-0.3857,-0.3839,-0.3833,-0.3829,-0.3806,-0.3809,-0.3811,-0.3818,-0.3801,-0.3794,-0.379,-0.383,-0.383,-0.383,-0.383,0,0,-0.3973,-0.3952,-0.3948,-0.3939,-0.3922,-0.391,-0.3893,-0.3876,-0.3867,-0.3853,-0.3839,-0.3816,-0.3817,-0.3807,-0.3802,-0.3791,-0.3773,-0.3794,-0.3794,-0.3791,-0.3747,-0.3745,-0.3742,-0.3772,-0.3772,-0.3771,-0.3748,0,-0.3952,-0.3923,-0.3917,-0.3891,-0.3877,-0.3874,-0.386,-0.3847,-0.384,-0.3826,-0.3817,-0.3801,-0.3805,-0.3798,-0.3787,-0.3778,-0.3764,-0.3779,-0.3758,-0.3758,-0.3763,-0.3738,-0.3736,-0.3715,-0.3745,-0.3744,-0.3744,0,-0.3923,-0.391,-0.3883,-0.3868,-0.3862,-0.3849,-0.3832,-0.3819,-0.3805,-0.38,-0.3788,-0.3785,-0.3767,-0.3774,-0.3749,-0.3759,-0.375,-0.3744,-0.3743,-0.3741,-0.375,-0.3735,-0.3709,-0.3706,-0.3739,-0.374,-0.374,0,-0.3911,-0.3885,-0.3866,-0.3859,-0.3841,-0.3832,-0.3824,-0.381,-0.38,-0.3786,-0.3779,-0.3762,-0.3753,-0.374,-0.3732,-0.3738,-0.3707,-0.3714,-0.3703,-0.3703,-0.3696,-0.3697,-0.3668,-0.369,-0.369,-0.369,-0.3691,0,-0.3888,-0.3872,-0.386,-0.3849,-0.383,-0.3823,-0.3805,-0.3797,-0.3784,-0.377,-0.3767,-0.3754,-0.3744,-0.3729,-0.3723,-0.3703,-0.3699,-0.3694,-0.3693,-0.3695,-0.3695,-0.3689,-0.369,-0.369,-0.369,-0.369,-0.369,0,-0.3871,-0.3863,-0.3842,-0.3826,-0.3822,-0.3809,-0.3796,-0.3784,-0.3776,-0.3759,-0.3754,-0.3742,-0.3725,-0.3715,-0.3693,-0.3689,-0.3667,-0.3666,-0.3672,-0.3671,-0.366,-0.3661,-0.3626,-0.3621,-0.3647,-0.3647,-0.3646,0,-0.3857,-0.3844,-0.3828,-0.3819,-0.3811,-0.3796,-0.3786,-0.3778,-0.3768,-0.375,-0.374,-0.3723,-0.3709,-0.3681,-0.367,-0.3653,-0.3652,-0.364,-0.3649,-0.3651,-0.3652,-0.3653,-0.3651,-0.3639,-0.3639,-0.3639,-0.3639,0,-0.3833,-0.383,-0.3816,-0.38,-0.3789,-0.3776,-0.3763,-0.3755,-0.3746,-0.3734,-0.3716,-0.3705,-0.3683,-0.3666,-0.3648,-0.3639,-0.3637,-0.3636,-0.3632,-0.3634,-0.3638,-0.3636,-0.3668,-0.3637,-0.3637,-0.3637,-0.3637,-0.3637,-0.3817,-0.3806,-0.3793,-0.3777,-0.3767,-0.3755,-0.3743,-0.3735,-0.372,-0.3702,-0.3698,-0.3679,-0.3665,-0.3641,-0.3632,-0.3617,-0.3619,-0.3614,-0.3612,-0.3611,-0.3611,-0.3641,-0.3613,-0.3613,-0.3613,-0.3613,-0.3613,0,-0.3794,-0.3785,-0.3771,-0.3754,-0.3741,-0.3741,-0.3727,-0.3716,-0.37,-0.3687,-0.3673,-0.3653,-0.3636,-0.3624,-0.3606,-0.3597,-0.3595,-0.3592,-0.3593,-0.3591,-0.361,-0.3615,-0.3594,-0.3594,-0.3594,-0.3594,-0.3594,-0.3594,-0.378,-0.3761,-0.3756,-0.3732,-0.3723,-0.3705,-0.3697,-0.3686,-0.3676,-0.3654,-0.364,-0.3632,-0.3619,-0.3601,-0.3585,-0.3582,-0.3576,-0.3573,-0.3569,-0.3587,-0.359,-0.3592,-0.3596,-0.3571,-0.3571,-0.3552,-0.3551,-0.3551]},{"header":{"parameterUnit":"m.s-1","parameterCategory":1,"la1":30.2991,"la2":30.254,"lo1":-89.0895,"lo2":-89.0444,"dy":0.0017,"dx":0.0017,"nx":28,"ny":28,"refTime":"2025-08-16T03:00:00:Z","depth":0,"parameterNumber":3,"parameterNumberName":"V-component_of_WINDS"},"data":[0,0,0,0,0,0,0,0,0,0,0,0,0,0,0,0,0,0,0,0,0,0,0,0,0,0,0,0,0,0,0,0,0,0,0,0,0,0,0,0,0,0,0,0,0,0,0,0,0,0,0,0,0,0,0,0,0,0,-1.8679,-1.8679,0,-1.8668,-1.8668,-1.8668,-1.8634,-1.8633,-1.8633,-1.8632,-1.8619,-1.8619,-1.8619,0,0,0,0,0,0,0,0,0,0,0,0,0,-1.867,-1.867,-1.8679,-1.8679,-1.8679,-1.8668,-1.8668,-1.8668,-1.8634,-1.8633,-1.8633,-1.8632,-1.8619,-1.8619,-1.8619,0,0,0,0,0,0,0,0,0,0,0,0,0,-1.8668,-1.8671,-1.8679,-1.8661,-1.8659,-1.8668,-1.8668,-1.8668,-1.8635,-1.8633,-1.8632,-1.8631,-1.8618,-1.8619,-1.8619,-1.8644,0,0,-1.8621,-1.8621,0,0,0,0,0,0,0,0,-1.8668,-1.8668,-1.8664,-1.8662,-1.866,-1.8651,-1.866,-1.866,-1.8635,-1.8644,-1.8632,-1.8631,-1.863,-1.863,-1.863,-1.8644,-1.8643,-1.8621,-1.8621,-1.8621,-1.8622,0,0,0,0,0,0,0,-1.8668,-1.8669,-1.8675,-1.8664,-1.8661,-1.8653,-1.8651,-1.866,-1.8643,-1.8643,-1.864,-1.864,-1.8629,-1.863,-1.8629,-1.8643,-1.8621,-1.8621,-1.8622,-1.8622,-1.8679,-1.868,0,0,0,0,0,0,-1.8671,-1.8669,-1.8675,-1.8674,-1.8662,-1.8654,-1.8652,-1.8655,-1.8643,-1.864,-1.8641,-1.8638,-1.8629,-1.8629,-1.8629,-1.8659,-1.8621,-1.8622,-1.8622,-1.8678,-1.8679,-1.8681,0,0,0,0,0,0,-1.8671,-1.8672,-1.8675,-1.8671,-1.8671,-1.8655,-1.8659,-1.8656,-1.8656,-1.8641,-1.8638,-1.8644,-1.8628,-1.8628,-1.8642,-1.8658,-1.8622,-1.8623,-1.8677,-1.8678,-1.868,-1.8719,0,0,0,0,0,0,-1.8671,-1.8672,-1.8682,-1.8672,-1.8671,-1.8689,-1.866,-1.8656,-1.8657,-1.8654,-1.8644,-1.8641,-1.8628,-1.8641,-1.8642,-1.8658,-1.8623,-1.8675,-1.8677,-1.868,-1.8716,-1.8722,-1.8727,0,0,0,0,0,-1.8671,-1.8692,-1.8682,-1.8683,-1.8683,-1.869,-1.8689,-1.8674,-1.8659,-1.8668,-1.8659,-1.8642,-1.8656,-1.8643,-1.8643,-1.866,-1.8674,-1.8677,-1.8679,-1.8714,-1.8721,-1.8727,0,0,0,0,0,0,-1.8704,-1.869,-1.8679,-1.8698,-1.8695,-1.8684,-1.8695,-1.8681,-1.8682,-1.8679,-1.8659,-1.8657,-1.8673,-1.8668,-1.8653,-1.8685,-1.8662,-1.8665,-1.8688,-1.8695,-1.87,-1.8701,-1.8623,0,0,0,0,0,-1.8713,-1.872,-1.8708,-1.8726,-1.8725,-1.8711,-1.8713,-1.8701,-1.8697,-1.8696,-1.8687,-1.8684,-1.8688,-1.8691,-1.8693,-1.8715,-1.8713,-1.8727,-1.8732,-1.8737,-1.874,-1.8753,-1.876,-1.869,-1.869,-1.869,0,0,-1.8733,-1.8726,-1.8732,-1.8732,-1.8729,-1.8737,-1.871,-1.8719,-1.8725,-1.8697,-1.871,-1.8704,-1.8698,-1.8717,-1.8724,-1.8712,-1.8759,-1.874,-1.8744,-1.8745,-1.8757,-1.8763,-1.8769,-1.8692,-1.8691,-1.8691,0,0,-1.8773,-1.8768,-1.8783,-1.8781,-1.8777,-1.8767,-1.8771,-1.8762,-1.8757,-1.877,-1.875,-1.8756,-1.8763,-1.8761,-1.876,-1.8802,-1.8786,-1.8803,-1.8831,-1.8844,-1.885,-1.8855,-1.8871,-1.8877,-1.8806,-1.8806,-1.8806,0,-1.8797,-1.8809,-1.8793,-1.8804,-1.8805,-1.8782,-1.8798,-1.8796,-1.8792,-1.8793,-1.878,-1.879,-1.8784,-1.8803,-1.8813,-1.8813,-1.8818,-1.8804,-1.885,-1.8855,-1.8859,-1.8875,-1.8881,-1.8808,-1.8808,-1.8808,-1.8808,0,-1.884,-1.8849,-1.8862,-1.8861,-1.8863,-1.8876,-1.8862,-1.8867,-1.8855,-1.8848,-1.8862,-1.8855,-1.8856,-1.886,-1.8848,-1.8877,-1.887,-1.8854,-1.8831,-1.8869,-1.8883,-1.8888,-1.8811,-1.8811,-1.881,-1.8809,0,0,-1.89,-1.8891,-1.8896,-1.8897,-1.8891,-1.8897,-1.8909,-1.8912,-1.8918,-1.8916,-1.8927,-1.8934,-1.892,-1.8919,-1.8907,-1.8918,-1.8954,-1.8901,-1.8901,-1.8913,-1.8988,-1.9001,-1.9008,-1.8943,-1.8944,-1.8945,-1.8989,0,-1.8939,-1.8961,-1.8948,-1.8972,-1.8981,-1.8959,-1.897,-1.8968,-1.8961,-1.8967,-1.8959,-1.8966,-1.8945,-1.8946,-1.8956,-1.8948,-1.8969,-1.8944,-1.8954,-1.8955,-1.8958,-1.9015,-1.9029,-1.9071,-1.8994,-1.8995,-1.8996,0,-1.8988,-1.8991,-1.9016,-1.9011,-1.9014,-1.9024,-1.9027,-1.9033,-1.903,-1.9024,-1.9026,-1.9011,-1.9023,-1.9,-1.9018,-1.9001,-1.9004,-1.9001,-1.9002,-1.9004,-1.8978,-1.902,-1.9083,-1.909,-1.9004,-1.9003,-1.9003,0,-1.9031,-1.9041,-1.9058,-1.9058,-1.9052,-1.906,-1.9058,-1.9054,-1.9058,-1.906,-1.9062,-1.9065,-1.9067,-1.9069,-1.9056,-1.9041,-1.9076,-1.9052,-1.9073,-1.9073,-1.9082,-1.9082,-1.9148,-1.9082,-1.9082,-1.9081,-1.9081,0,-1.9077,-1.9094,-1.9078,-1.9088,-1.9107,-1.9091,-1.911,-1.9105,-1.9103,-1.9112,-1.9093,-1.9102,-1.9084,-1.9091,-1.9081,-1.9098,-1.9099,-1.9095,-1.9092,-1.9098,-1.9098,-1.91,-1.9098,-1.9083,-1.9083,-1.9082,-1.9082,0,-1.9129,-1.9119,-1.9136,-1.913,-1.9128,-1.9143,-1.9137,-1.9146,-1.9139,-1.9151,-1.9153,-1.9141,-1.9149,-1.9136,-1.9142,-1.9135,-1.916,-1.9152,-1.9161,-1.916,-1.9182,-1.9181,-1.9253,-1.9263,-1.9189,-1.9189,-1.919,0,-1.916,-1.9173,-1.9168,-1.9174,-1.9173,-1.9182,-1.9186,-1.9171,-1.9176,-1.9175,-1.9185,-1.9192,-1.9197,-1.9211,-1.9202,-1.9207,-1.92,-1.9225,-1.9201,-1.9207,-1.9203,-1.9203,-1.9205,-1.9231,-1.9232,-1.9232,-1.9233,0,-1.9216,-1.9211,-1.9218,-1.9224,-1.9229,-1.9232,-1.9234,-1.924,-1.9224,-1.9231,-1.924,-1.9244,-1.9251,-1.9258,-1.9262,-1.9259,-1.9244,-1.9241,-1.9246,-1.9252,-1.9258,-1.9257,-1.9177,-1.9239,-1.9239,-1.9238,-1.9238,-1.9238,-1.9259,-1.9271,-1.927,-1.9279,-1.9279,-1.9282,-1.9291,-1.9286,-1.9293,-1.9299,-1.9289,-1.9301,-1.93,-1.9303,-1.9302,-1.9311,-1.93,-1.9307,-1.9309,-1.9312,-1.9316,-1.9256,-1.9311,-1.9311,-1.9311,-1.9311,-1.931,0,-1.9316,-1.9315,-1.9324,-1.9328,-1.9335,-1.9321,-1.9323,-1.933,-1.9341,-1.9341,-1.9347,-1.9358,-1.9366,-1.9358,-1.9365,-1.9373,-1.9367,-1.9376,-1.9376,-1.9376,-1.9325,-1.9321,-1.9381,-1.9381,-1.9381,-1.9381,-1.9381,-1.9381,-1.9347,-1.9366,-1.9361,-1.9381,-1.9379,-1.9392,-1.9394,-1.9397,-1.9397,-1.9411,-1.9418,-1.9413,-1.9411,-1.9417,-1.9424,-1.9422,-1.9425,-1.9437,-1.9433,-1.9386,-1.9379,-1.9372,-1.9368,-1.9438,-1.9438,-1.9483,-1.9483,-1.9484]}]]